User: anonymous   Login
Location: Stigler
(35.2540°N, 95.1230°W)
Time: 21:17:33
(UTC-05:00)
Language:

Cosmos 1805 - Orbit

View from above orbital plane
View from above orbital plane
View from above satellite
View from above satellite

Ground track
Ground track

The orbit data is extracted from the following two-line orbital elements,

1 17191U 86097A   17146.32717467 +.00000442 +00000-0 +24152-4 0  9993
2 17191 082.4775 051.0076 0005662 137.6407 222.5261 15.11744905660054
Epoch (UTC): 26 May 2017 07:51:07
Eccentricity: 0.0005662
inclination: 82.4775°
perigee height: 527 km
apogee height: 535 km
right ascension of ascending node: 51.0076°
argument of perigee: 137.6407°
revolutions per day: 15.11744905
mean anomaly at epoch: 222.5261°
orbit number at epoch: 66005

The dashed part of the orbit path shows where the satellite is in the earth's shadow,  

DLR